N1YZ Weather Reports


Display with metric or nautical units.
time (UTC)temp
F
wind
direction
speed
MPH
gust
MPH
rain 1hr
in
rain 24hr
in
rain mn
in
humidity
%
barometer
mb
20260902065134 78 3 0.0 0.0 0.00 0.00 0.00 90 1037.1
20260902064629 77 4 0.0 0.0 0.00 0.00 0.00 90 1037.2
20260902064125 77 4 0.0 0.0 0.00 0.00 0.00 90 1037.2
20260902063620 77 5 0.0 0.0 0.00 0.00 0.00 90 1037.0
20260902063115 78 6 0.0 0.0 0.00 0.00 0.00 89 1037.1
20260902062613 78 6 0.0 0.0 0.00 0.00 0.00 89 1037.1
20260902062108 78 5 0.0 0.0 0.00 0.00 0.00 88 1037.2
20260902061603 78 6 0.0 0.0 0.00 0.00 0.00 88 1037.1
20260902061059 78 6 0.0 0.0 0.00 0.00 0.00 87 1037.0
20260902060555 78 19 0.0 0.0 0.00 0.00 0.00 87 1037.0
20260902060051 78 347 0.0 0.0 0.00 0.00 0.00 87 1037.2
20260902055547 78 12 0.0 0.0 0.00 0.00 0.00 87 1037.2
20260902055042 78 100 0.0 0.0 0.00 0.00 0.00 88 1037.1
20260902054537 79 100 0.0 0.0 0.00 0.00 0.00 87 1037.4
20260902054033 79 280 0.0 0.0 0.00 0.00 0.00 86 1037.1
20260902053532 79 336 0.0 0.0 0.00 0.00 0.00 85 1037.3
20260902053027 79 348 0.0 0.0 0.00 0.00 0.00 84 1037.3
20260902052522 79 348 0.0 0.0 0.00 0.00 0.00 85 1037.3
20260902052018 79 349 0.0 0.0 0.00 0.00 0.00 86 1037.2
20260902051517 79 349 0.0 0.0 0.00 0.00 0.00 85 1037.2
20260902051016 79 349 0.0 0.0 0.00 0.00 0.00 85 1037.3
20260902050511 79 349 0.0 0.0 0.00 0.00 0.00 84 1037.3
20260902050008 80 348 0.0 0.0 0.00 0.00 0.00 84 1037.3
20260902045501 80 348 0.0 0.0 0.00 0.00 0.00 84 1037.3
20260902044958 80 357 0.0 0.0 0.00 0.00 0.00 85 1037.3
20260902044452 79 357 0.0 0.0 0.00 0.00 0.00 85 1037.2
20260902043948 80 358 0.0 0.0 0.00 0.00 0.00 84 1037.4
20260902043443 80 358 0.0 0.0 0.00 0.00 0.00 84 1037.3
20260902042938 80 358 0.0 0.0 0.00 0.00 0.00 84 1037.2
20260902042438 80 358 0.0 0.0 0.00 0.00 0.00 83 1037.3
20260902041933 80 358 0.0 0.0 0.00 0.00 0.00 82 1037.1
20260902041427 80 358 0.0 0.0 0.00 0.00 0.00 82 1037.6
20260902040926 80 358 0.0 0.0 0.00 0.00 0.00 81 1037.4
20260902040421 80 359 0.0 0.0 0.00 0.00 0.00 81 1037.5
20260902035920 81 359 0.0 0.0 0.00 0.00 0.00 81 1037.4
20260902035416 81 359 0.0 0.0 0.00 0.00 0.00 81 1037.3
20260902034914 81 359 0.0 0.0 0.00 0.00 0.00 80 1037.3
20260902034409 81 353 0.0 0.0 0.00 0.00 0.00 79 1037.5
20260902033909 81 345 0.0 0.0 0.00 0.00 0.00 80 1037.3
20260902033403 82 207 0.0 0.0 0.00 0.00 0.00 79 1037.4
20260902032902 82 328 0.0 0.0 0.00 0.00 0.00 79 1037.6
20260902032356 82 307 0.0 0.0 0.00 0.00 0.00 79 1037.5
20260902031856 82 357 0.0 0.0 0.00 0.00 0.00 76 1037.5
20260902031347 83 357 0.0 0.0 0.00 0.00 0.00 76 1037.6
20260902030837 83 358 0.0 0.0 0.00 0.00 0.00 76 1037.5
20260902030331 83 357 0.0 0.0 0.00 0.00 0.00 75 1037.4
20260902025830 83 7 0.0 0.0 0.00 0.00 0.00 74 1037.7
20260902025326 83 357 0.0 0.0 0.00 0.00 0.00 75 1037.6
20260902024820 83 357 0.0 0.0 0.00 0.00 0.00 75 1037.4
20260902024316 83 357 0.0 0.0 0.00 0.00 0.00 75 1037.8
20260902023811 83 358 0.0 0.0 0.00 0.00 0.00 74 1037.5
20260902023307 83 358 0.0 0.0 0.00 0.00 0.00 74 1037.3
20260902022806 83 358 0.0 0.0 0.00 0.00 0.00 74 1037.6
20260902022301 83 358 0.0 0.0 0.00 0.00 0.00 73 1037.3
20260902021757 83 358 0.0 0.0 0.00 0.00 0.00 73 1037.3
20260902021256 83 358 0.0 0.0 0.00 0.00 0.00 73 1037.3
20260902020753 84 358 0.0 0.0 0.00 0.00 0.00 72 1037.3
20260902020249 84 358 0.0 0.0 0.00 0.00 0.00 71 1037.2
20260902015743 84 358 0.0 0.0 0.00 0.00 0.00 71 1037.2
20260902015240 84 358 0.0 0.0 0.00 0.00 0.00 71 1037.0
20260902014735 85 358 0.0 0.0 0.00 0.00 0.00 70 1037.1
20260902014232 85 359 0.0 0.0 0.00 0.00 0.00 69 1036.9
20260902013729 85 359 0.0 0.0 0.00 0.00 0.00 68 1036.9
20260902013226 86 358 0.0 0.0 0.00 0.00 0.00 67 1036.6
20260902012721 86 358 0.0 0.0 0.00 0.00 0.00 67 1036.7
20260902012217 86 358 0.0 0.0 0.00 0.00 0.00 67 1036.7
20260902011712 86 359 0.0 0.0 0.00 0.00 0.00 66 1036.8
20260902011212 86 359 0.0 0.0 0.00 0.00 0.00 67 1036.7
20260902010706 86 359 0.0 0.0 0.00 0.00 0.00 66 1036.8
20260902010202 86 359 0.0 0.0 0.00 0.00 0.00 65 1036.6
20260902005700 86 359 0.0 0.0 0.00 0.00 0.00 64 1036.5
20260902005156 87 359 0.0 0.0 0.00 0.00 0.00 64 1036.4
20260902004656 87 359 0.0 0.0 0.00 0.00 0.00 63 1036.5
20260902004150 87 359 0.0 0.0 0.00 0.00 0.00 63 1036.3
20260902003646 87 359 0.0 0.0 0.00 0.00 0.00 62 1036.1
20260902003142 88 0 0.0 0.0 0.00 0.00 0.00 62 1036.2
20260902002636 88 1 0.0 0.0 0.00 0.00 0.00 61 1036.3
20260902002131 88 354 0.0 0.0 0.00 0.00 0.00 62 1036.2
20260902001626 89 6 0.0 0.0 0.00 0.00 0.00 61 1036.3
20260902001120 89 9 0.0 0.0 0.00 0.00 0.00 61 1036.2
20260902000616 89 336 0.0 0.0 0.00 0.00 0.00 61 1036.1
20260902000111 89 353 0.0 0.0 0.00 0.00 0.00 60 1036.3
20260901235605 90 4 0.0 0.0 0.00 0.00 0.00 59 1036.5
20260901235101 90 299 0.0 0.0 0.00 0.00 0.00 59 1036.5
20260901234559 90 355 0.0 0.0 0.00 0.00 0.00 58 1036.5
20260901234054 90 356 0.0 0.0 0.00 0.00 0.00 58 1036.5
20260901233549 90 9 0.0 0.0 0.00 0.00 0.00 58 1036.6
20260901233045 91 351 0.0 0.0 0.00 0.00 0.00 57 1036.5
20260901232540 91 352 0.0 0.0 0.00 0.00 0.00 57 1036.6
20260901232035 91 2 0.0 0.0 0.00 0.00 0.00 57 1036.7
20260901231531 91 10 0.0 0.0 0.00 0.00 0.00 57 1036.4
20260901231027 91 16 0.0 0.0 0.00 0.00 0.00 57 1036.5
20260901230522 91 14 0.0 0.0 0.00 0.00 0.00 57 1036.4
20260901230017 91 7 0.0 0.0 0.00 0.00 0.00 56 1036.3
20260901225512 91 11 0.0 0.0 0.00 0.00 0.00 56 1036.5
20260901225011 91 31 0.0 0.0 0.00 0.00 0.00 56 1036.6
20260901223337 92 51 1.0 1.0 0.00 0.00 0.00 55 1036.3
20260901222832 92 51 1.0 1.0 0.00 0.00 0.00 55 1036.3
20260901222329 92 0 0.0 1.0 0.00 0.00 0.00 56 1036.3
20260901221824 92 9 0.0 0.0 0.00 0.00 0.00 56 1036.2
20260901221320 92 8 0.0 0.0 0.00 0.00 0.00 56 1036.3
20260901220819 92 173 1.0 1.0 0.00 0.00 0.00 55 1036.2
20260901220318 92 21 0.0 0.0 0.00 0.00 0.00 55 1036.4
20260901215817 91 18 0.0 0.0 0.00 0.00 0.00 57 1036.2
20260901215312 92 355 1.0 1.0 0.00 0.00 0.00 57 1036.3
20260901214810 91 83 0.0 1.0 0.00 0.00 0.00 55 1036.2
20260901214309 92 2 0.0 0.0 0.00 0.00 0.00 55 1036.6
20260901213804 92 354 0.0 0.0 0.00 0.00 0.00 55 1036.2
20260901213304 91 27 0.0 1.0 0.00 0.00 0.00 57 1036.4
20260901212759 92 19 0.0 0.0 0.00 0.00 0.00 54 1036.4
20260901212254 92 18 0.0 0.0 0.00 0.00 0.00 56 1036.4
20260901211749 92 0 0.0 0.0 0.00 0.00 0.00 54 1036.4
20260901211246 92 250 1.0 1.0 0.00 0.00 0.00 52 1036.5
20260901210741 92 43 1.0 1.0 0.00 0.00 0.00 56 1036.4
20260901210237 92 341 1.0 2.0 0.00 0.00 0.00 54 1036.5
20260901205733 93 11 3.0 3.0 0.00 0.00 0.00 53 1036.6
20260901205232 94 198 0.0 0.0 0.00 0.00 0.00 53 1036.6
20260901204728 93 182 2.0 2.0 0.00 0.00 0.00 52 1036.6
20260901204224 93 195 1.0 2.0 0.00 0.00 0.00 52 1036.6
20260901203718 93 19 0.0 0.0 0.00 0.00 0.00 55 1036.6
20260901203213 94 184 2.0 2.0 0.00 0.00 0.00 53 1036.6
20260901202712 94 64 0.0 1.0 0.00 0.00 0.00 53 1036.7
20260901202208 93 38 0.0 0.0 0.00 0.00 0.00 51 1036.9
20260901201704 94 59 0.0 0.0 0.00 0.00 0.00 51 1037.0
20260901201203 94 150 0.0 1.0 0.00 0.00 0.00 54 1037.2
20260901200703 93 29 0.0 0.0 0.00 0.00 0.00 53 1037.3
20260901200153 94 23 0.0 0.0 0.00 0.00 0.00 54 1037.2
20260901195650 93 6 0.0 0.0 0.00 0.00 0.00 53 1037.2
20260901195144 93 254 1.0 1.0 0.00 0.00 0.00 54 1037.5
20260901194639 93 13 0.0 0.0 0.00 0.00 0.00 53 1037.3
20260901194129 93 346 1.0 2.0 0.00 0.00 0.00 58 1037.3
20260901193625 93 20 0.0 1.0 0.00 0.00 0.00 54 1037.3
20260901193119 93 36 0.0 1.0 0.00 0.00 0.00 51 1037.3
20260901192614 94 28 0.0 0.0 0.00 0.00 0.00 53 1037.4
20260901192109 93 9 0.0 0.0 0.00 0.00 0.00 53 1037.7
20260901191605 93 44 0.0 1.0 0.00 0.00 0.00 55 1037.7
20260901191101 92 17 0.0 0.0 0.00 0.00 0.00 53 1037.9
20260901190556 93 351 1.0 2.0 0.00 0.00 0.00 54 1037.8
20260901190055 94 33 0.0 0.0 0.00 0.00 0.00 53 1037.9
20260901185554 95 356 0.0 1.0 0.00 0.00 0.00 52 1038.1
20260901185053 95 19 0.0 0.0 0.00 0.00 0.00 50 1038.1
20260901184549 95 126 1.0 2.0 0.00 0.00 0.00 48 1038.0
20260901184043 94 356 0.0 1.0 0.00 0.00 0.00 52 1038.2
20260901183538 93 22 1.0 1.0 0.00 0.00 0.00 54 1038.1
20260901183034 94 25 0.0 1.0 0.00 0.00 0.00 52 1038.3
20260901182530 93 4 0.0 1.0 0.00 0.00 0.00 54 1038.1
20260901182030 93 350 0.0 0.0 0.00 0.00 0.00 56 1038.4
20260901181529 94 346 0.0 0.0 0.00 0.00 0.00 53 1038.2
20260901181028 94 26 0.0 0.0 0.00 0.00 0.00 54 1038.3
20260901180527 94 246 1.0 1.0 0.00 0.00 0.00 51 1038.1
20260901180022 94 36 0.0 1.0 0.00 0.00 0.00 56 1038.5
20260901175516 94 198 1.0 2.0 0.00 0.00 0.00 53 1038.3
20260901175016 93 35 0.0 0.0 0.00 0.00 0.00 54 1038.4
20260901174512 92 357 0.0 0.0 0.00 0.00 0.00 58 1038.5
20260901174008 92 19 0.0 0.0 0.00 0.00 0.00 59 1038.4
20260901173503 93 13 1.0 1.0 0.00 0.00 0.00 56 1038.6
20260901172959 91 352 0.0 0.0 0.00 0.00 0.00 57 1038.6
20260901172454 90 358 1.0 1.0 0.00 0.00 0.00 58 1038.7
20260901171952 93 9 0.0 1.0 0.00 0.00 0.00 57 1038.8
20260901171450 93 205 0.0 1.0 0.00 0.00 0.00 53 1038.7
20260901170949 93 30 0.0 1.0 0.00 0.00 0.00 60 1039.0
20260901170444 92 45 0.0 0.0 0.00 0.00 0.00 56 1038.9
20260901165944 91 7 0.0 0.0 0.00 0.00 0.00 62 1039.0
20260901165439 91 2 1.0 1.0 0.00 0.00 0.00 64 1039.1
20260901164935 92 35 0.0 0.0 0.00 0.00 0.00 61 1039.0
20260901164430 91 351 0.0 0.0 0.00 0.00 0.00 63 1039.1
20260901163925 91 26 0.0 0.0 0.00 0.00 0.00 60 1039.0
20260901163419 91 342 0.0 0.0 0.00 0.00 0.00 62 1039.1
20260901162914 90 11 0.0 0.0 0.00 0.00 0.00 62 1038.9
20260901162414 89 24 0.0 0.0 0.00 0.00 0.00 61 1038.8
20260901161907 89 20 0.0 0.0 0.00 0.00 0.00 59 1039.2
20260901161406 89 142 1.0 2.0 0.00 0.00 0.00 57 1039.1
20260901160901 89 33 0.0 0.0 0.00 0.00 0.00 69 1039.1
20260901160358 89 25 0.0 0.0 0.00 0.00 0.00 66 1039.2
20260901155857 89 356 0.0 0.0 0.00 0.00 0.00 70 1039.4
20260901155352 88 259 0.0 0.0 0.00 0.00 0.00 69 1039.4
20260901154849 88 17 0.0 0.0 0.00 0.00 0.00 67 1039.6
20260901154347 89 332 0.0 0.0 0.00 0.00 0.00 68 1039.4
20260901153842 89 352 0.0 0.0 0.00 0.00 0.00 67 1039.6
20260901153337 89 34 0.0 0.0 0.00 0.00 0.00 68 1039.5
20260901152836 89 359 0.0 0.0 0.00 0.00 0.00 64 1039.7
20260901152336 88 35 0.0 0.0 0.00 0.00 0.00 67 1039.6
20260901151831 88 43 0.0 0.0 0.00 0.00 0.00 67 1039.6
20260901151326 88 19 0.0 0.0 0.00 0.00 0.00 67 1039.7
20260901150825 88 15 0.0 0.0 0.00 0.00 0.00 69 1039.8
20260901150323 88 33 0.0 0.0 0.00 0.00 0.00 70 1039.9
20260901145821 87 342 0.0 0.0 0.00 0.00 0.00 71 1039.8
20260901145321 87 358 0.0 0.0 0.00 0.00 0.00 72 1039.8
20260901144816 87 220 1.0 1.0 0.00 0.00 0.00 72 1039.7
20260901144312 87 289 0.0 0.0 0.00 0.00 0.00 72 1039.5
20260901143808 88 0 0.0 0.0 0.00 0.00 0.00 72 1039.7
20260901143304 87 9 0.0 0.0 0.00 0.00 0.00 72 1039.6
20260901142800 87 350 0.0 0.0 0.00 0.00 0.00 75 1039.8
20260901142258 85 0 0.0 0.0 0.00 0.00 0.00 78 1039.8
20260901141754 84 350 0.0 0.0 0.00 0.00 0.00 80 1039.8
20260901141249 83 1 0.0 0.0 0.00 0.00 0.00 81 1039.8
20260901140748 81 8 0.0 0.0 0.00 0.00 0.00 83 1039.6
20260901140246 81 266 0.0 0.0 0.00 0.00 0.00 84 1039.6
20260901135741 80 349 0.0 0.0 0.00 0.00 0.00 85 1039.6
20260901135236 80 345 0.0 0.0 0.00 0.00 0.00 86 1039.6
20260901134731 80 340 0.0 0.0 0.00 0.00 0.00 86 1039.7
20260901134226 79 312 0.0 0.0 0.00 0.00 0.00 87 1039.6
20260901133725 78 307 0.0 0.0 0.00 0.00 0.00 89 1039.8
20260901133225 78 342 0.0 0.0 0.00 0.00 0.00 91 1039.7
20260901132723 77 321 0.0 0.0 0.00 0.00 0.00 91 1039.7
20260901132218 77 0 0.0 0.0 0.00 0.00 0.00 92 1039.7
20260901131713 77 238 0.0 0.0 0.00 0.00 0.00 92 1039.8
20260901131213 77 28 0.0 0.0 0.00 0.00 0.00 93 1039.9
20260901130708 76 359 0.0 0.0 0.00 0.00 0.00 93 1039.9
20260901130207 76 293 0.0 0.0 0.00 0.00 0.00 94 1040.0
20260901125705 76 266 0.0 0.0 0.00 0.00 0.00 94 1039.8
20260901125200 75 297 0.0 0.0 0.00 0.00 0.00 95 1039.7
20260901124654 75 324 0.0 0.0 0.00 0.00 0.00 95 1039.5
20260901124149 75 284 0.0 0.0 0.00 0.00 0.00 95 1039.6
20260901123644 75 46 0.0 0.0 0.00 0.00 0.00 96 1039.6
20260901123143 74 79 0.0 0.0 0.00 0.00 0.00 96 1039.6
20260901122642 74 87 0.0 0.0 0.00 0.00 0.00 96 1039.6
20260901122137 74 54 0.0 0.0 0.00 0.00 0.00 97 1039.5
20260901121631 74 12 0.0 0.0 0.00 0.00 0.00 97 1039.3
20260901121126 74 20 0.0 0.0 0.00 0.00 0.00 98 1039.2
20260901120621 74 16 0.0 0.0 0.00 0.00 0.00 98 1039.1
20260901120116 74 12 0.0 0.0 0.00 0.00 0.00 98 1039.1
20260901115611 73 26 0.0 0.0 0.00 0.00 0.00 98 1038.7
20260901115108 74 27 0.0 0.0 0.00 0.00 0.00 98 1038.8
20260901114604 74 43 0.0 0.0 0.00 0.00 0.00 98 1038.8
20260901114102 74 83 0.0 0.0 0.00 0.00 0.00 97 1038.6
20260901113601 74 76 0.0 0.0 0.00 0.00 0.00 97 1038.8
20260901113052 74 68 0.0 0.0 0.00 0.00 0.00 96 1038.4
20260901112551 74 34 0.0 0.0 0.00 0.00 0.00 96 1038.7
20260901112046 74 340 0.0 0.0 0.00 0.00 0.00 97 1038.7
20260901111545 74 2 0.0 0.0 0.00 0.00 0.00 96 1038.7
20260901111043 74 2 0.0 0.0 0.00 0.00 0.00 96 1038.7
20260901110539 74 2 0.0 0.0 0.00 0.00 0.00 96 1038.5
20260901110035 74 2 0.0 0.0 0.00 0.00 0.00 96 1038.6
20260901105532 74 2 0.0 0.0 0.00 0.00 0.00 96 1038.5
20260901105030 74 2 0.0 0.0 0.00 0.00 0.00 96 1038.3
20260901104527 74 2 0.0 0.0 0.00 0.00 0.00 96 1038.5
20260901104022 75 2 0.0 0.0 0.00 0.00 0.00 96 1038.4
20260901103521 75 2 0.0 0.0 0.00 0.00 0.00 96 1038.3
20260901103018 75 2 0.0 0.0 0.00 0.00 0.00 96 1038.5
20260901102517 75 2 0.0 0.0 0.00 0.00 0.00 96 1038.3
20260901102012 75 3 0.0 0.0 0.00 0.00 0.00 96 1038.2
20260901101508 75 30 0.0 0.0 0.00 0.00 0.00 96 1038.4
20260901101007 75 25 0.0 0.0 0.00 0.00 0.00 96 1038.2
20260901100502 75 25 0.0 0.0 0.00 0.00 0.00 96 1038.2
20260901100000 75 25 0.0 0.0 0.00 0.00 0.00 96 1038.2
20260901095459 75 29 0.0 0.0 0.00 0.00 0.00 96 1038.4
20260901094957 75 38 0.0 0.0 0.00 0.00 0.00 96 1038.4
20260901094452 75 164 0.0 0.0 0.00 0.00 0.00 96 1038.4
20260901093947 75 176 0.0 0.0 0.00 0.00 0.00 96 1038.3
20260901093442 75 174 0.0 0.0 0.00 0.00 0.00 96 1038.2
20260901092941 75 312 0.0 0.0 0.00 0.00 0.00 95 1037.8
20260901092437 76 353 0.0 0.0 0.00 0.00 0.00 95 1038.1
20260901091934 76 350 0.0 0.0 0.00 0.00 0.00 95 1038.0
20260901091433 76 346 0.0 0.0 0.00 0.00 0.00 95 1038.0
20260901090929 76 321 0.0 0.0 0.00 0.00 0.00 96 1038.2
20260901090428 75 343 0.0 0.0 0.00 0.00 0.00 96 1038.1
20260901085924 75 10 0.0 0.0 0.00 0.00 0.00 96 1038.1
20260901085420 75 9 0.0 0.0 0.00 0.00 0.00 96 1037.9
20260901084916 75 12 0.0 0.0 0.00 0.00 0.00 96 1037.8
20260901084413 75 14 0.0 0.0 0.00 0.00 0.00 96 1038.0
20260901083908 75 16 0.0 0.0 0.00 0.00 0.00 96 1038.0
20260901083408 75 16 0.0 0.0 0.00 0.00 0.00 96 1037.8
20260901082906 76 16 0.0 0.0 0.00 0.00 0.00 96 1037.9
20260901082401 76 33 0.0 0.0 0.00 0.00 0.00 96 1037.7
20260901081855 76 35 0.0 0.0 0.00 0.00 0.00 96 1037.9
20260901081351 76 46 0.0 0.0 0.00 0.00 0.00 96 1037.9
20260901080851 76 59 0.0 0.0 0.00 0.00 0.00 96 1037.7
20260901080345 76 74 0.0 0.0 0.00 0.00 0.00 96 1037.6
20260901075840 76 96 0.0 0.0 0.00 0.00 0.00 96 1037.6
20260901075335 76 52 0.0 0.0 0.00 0.00 0.00 95 1037.5
20260901074830 76 20 0.0 0.0 0.00 0.00 0.00 95 1037.3
20260901074324 76 8 0.0 0.0 0.00 0.00 0.00 95 1037.5
20260901073820 76 8 0.0 0.0 0.00 0.00 0.00 95 1037.5
20260901073315 76 13 0.0 0.0 0.00 0.00 0.00 95 1037.5
20260901072812 76 13 0.0 0.0 0.00 0.00 0.00 94 1037.5
20260901072311 76 355 0.0 0.0 0.00 0.00 0.00 94 1037.8
20260901071807 76 353 0.0 0.0 0.00 0.00 0.00 95 1037.5
20260901071305 77 43 0.0 0.0 0.00 0.00 0.00 94 1037.5
20260901070804 77 13 0.0 0.0 0.00 0.00 0.00 94 1037.7
20260901070259 77 10 0.0 0.0 0.00 0.00 0.00 94 1037.4
20260901065759 77 14 0.0 0.0 0.00 0.00 0.00 94 1037.6